Mackinac Island, MI

2:05 AM EDT on July 26, 2017 (GMT -0400)
Mackinac Island

Weather History for KMCD - February, 2013

Change the Weather History Date:

Wednesday, February 6, 2013

  Actual Average Record
Temperature  
Mean Temperature 14 °F -  
Max Temperature 20 °F 25 °F 48 °F (2005)
Min Temperature 8 °F 14 °F -14 °F (1977)
Degree Days  
Heating Degree Days 51    
Moisture  
Dew Point 10 °F    
Average Humidity 80    
Maximum Humidity 92    
Minimum Humidity 60    
Precipitation  
Precipitation 0.00 in - - ()
Sea Level Pressure  
Sea Level Pressure 30.15 in    
Wind  
Wind Speed 6 mph (SE)    
Max Wind Speed 12 mph    
Max Gust Speed 16 mph    
Visibility 7 miles    
Events Snow    
Averages and records for this station are not official NWS values.
T = Trace of Precipitation, MM = Missing Value Source: NWS Daily Summary

Daily Weather History Graph

Daily Weather History Graph

Search for Another Location

Airport or City:

Trip Planner

Search our weather history database for the weather conditions in past years. The results will help you decide how hot, cold, wet, or windy it might be!

Date:

Astronomy

Feb. 06, 2013 Rise Set
Actual Time 7:53 AM EST 5:52 PM EST
Civil Twilight 7:22 AM EST 6:23 PM EST
Nautical Twilight 6:47 AM EST 6:58 PM EST
Astronomical Twilight 6:12 AM EST 7:33 PM EST
Moon 4:42 AM EST (2/6) 2:03 PM EST (2/6)
Length of Visible Light 11h 01m
Length of Day
9h 58m
Waning Crescent, 17% of the Moon is Illuminated
Feb 6
Waning Crescent
Feb 10
New
Feb 17
First Quarter
Feb 25
Full
Mar 4
Last Quarter

Hourly Weather History & Observations

Time (EST) Temp. Windchill Dew Point Humidity Pressure Visibility Wind Dir Wind Speed Gust Speed Precip Events Conditions
12:14 AM 12.2 °F -1.8 °F 7.7 °F 82% 29.94 in 10.0 mi WNW 11.5 mph 16.1 mph N/A   Clear
12:34 AM 11.8 °F -0.7 °F 7.3 °F 82% 29.95 in 5.0 mi WNW 9.2 mph 16.1 mph N/A Snow Light Snow
12:54 AM 11.3 °F -1.3 °F 7.0 °F 83% 29.96 in 10.0 mi WNW 9.2 mph - N/A Snow Light Snow
1:14 AM 11.5 °F -1.1 °F 7.7 °F 85% 29.97 in 10.0 mi WNW 9.2 mph - N/A   Scattered Clouds
1:34 AM 11.8 °F -2.3 °F 7.7 °F 83% 29.98 in 7.0 mi WNW 11.5 mph - N/A   Mostly Cloudy
2:14 AM 11.5 °F -0.2 °F 7.7 °F 85% 30.00 in 10.0 mi WNW 8.1 mph - N/A Snow Light Snow
2:34 AM 12.0 °F -0.4 °F 8.4 °F 85% 30.01 in 7.0 mi NW 9.2 mph - N/A Snow Light Snow
2:54 AM 11.8 °F 1.3 °F 8.1 °F 85% 30.01 in 10.0 mi NW 6.9 mph - N/A   Scattered Clouds
3:14 AM 11.5 °F 2.1 °F 7.7 °F 85% 30.02 in 10.0 mi NW 5.8 mph - N/A   Scattered Clouds
3:34 AM 11.1 °F 3.1 °F 7.5 °F 85% 30.03 in 10.0 mi North 4.6 mph 16.1 mph N/A   Scattered Clouds
3:54 AM 10.9 °F 1.4 °F 7.5 °F 86% 30.03 in 5.0 mi NNW 5.8 mph - N/A Snow Light Snow
6:14 AM 8.6 °F 2.0 °F 5.2 °F 86% 30.08 in 2.0 mi NE 3.5 mph - N/A Snow Light Snow
6:34 AM 8.1 °F - 4.5 °F 85% 30.09 in 2.0 mi Calm Calm - N/A Snow Light Snow
7:54 AM 9.5 °F 3.0 °F 5.9 °F 85% 30.14 in 2.0 mi East 3.5 mph - N/A Snow Light Snow
8:14 AM 10.0 °F 3.6 °F 6.1 °F 84% 30.15 in 1.2 mi East 3.5 mph - N/A Snow Light Snow
8:34 AM 10.8 °F 1.2 °F 6.8 °F 84% 30.15 in 1.5 mi ESE 5.8 mph - N/A Snow Light Snow
8:54 AM 10.8 °F 4.5 °F 6.8 °F 84% 30.16 in 1.8 mi SE 3.5 mph - N/A Snow Light Snow
9:14 AM 11.3 °F 1.9 °F 7.2 °F 83% 30.16 in 2.5 mi SE 5.8 mph - N/A Snow Light Snow
9:34 AM 12.4 °F 6.3 °F 7.5 °F 81% 30.16 in 2.0 mi SE 3.5 mph - N/A Snow Light Snow
9:54 AM 12.9 °F - 7.7 °F 80% 30.16 in 4.0 mi Calm Calm - N/A Snow Light Snow
10:14 AM 13.1 °F 7.1 °F 7.5 °F 78% 30.17 in 10.0 mi SSE 3.5 mph - N/A Snow Light Snow
10:34 AM 14.0 °F 8.2 °F 7.3 °F 75% 30.17 in 10.0 mi South 3.5 mph - N/A   Scattered Clouds
10:53 AM 13.1 °F 5.4 °F 7.2 °F 77% 30.17 in 10.0 mi SSE 4.6 mph - N/A   Mostly Cloudy
11:14 AM 13.8 °F 2.7 °F 8.4 °F 79% 30.18 in 10.0 mi South 8.1 mph - N/A   Overcast
11:34 AM 14.7 °F 3.8 °F 8.1 °F 75% 30.19 in 10.0 mi South 8.1 mph - N/A   Overcast
11:54 AM 15.1 °F 5.2 °F 8.4 °F 75% 30.20 in 10.0 mi South 6.9 mph - N/A Snow Light Snow
12:14 PM 15.8 °F 6.1 °F 8.4 °F 73% 30.20 in 10.0 mi SSE 6.9 mph - N/A   Overcast
12:34 PM 16.9 °F 11.5 °F 8.8 °F 71% 30.20 in 10.0 mi SSW 3.5 mph - N/A   Overcast
12:54 PM 16.7 °F - 9.1 °F 72% 30.20 in 10.0 mi Calm Calm - N/A   Overcast
1:14 PM 16.7 °F 11.2 °F 10.2 °F 76% 30.20 in 7.0 mi South 3.5 mph - N/A Snow Light Snow
1:34 PM 17.2 °F - 10.9 °F 76% 30.19 in 7.0 mi Calm Calm - N/A Snow Light Snow
1:54 PM 18.0 °F 12.7 °F 11.1 °F 75% 30.19 in 7.0 mi South 3.5 mph - N/A Snow Light Snow
2:14 PM 18.7 °F - 9.1 °F 66% 30.19 in 10.0 mi Calm Calm - N/A   Overcast
2:34 PM 18.5 °F 13.3 °F 9.1 °F 67% 30.18 in 10.0 mi SSW 3.5 mph - N/A   Overcast
2:54 PM 18.5 °F 13.3 °F 9.1 °F 67% 30.18 in 10.0 mi WSW 3.5 mph - N/A   Overcast
3:14 PM 19.2 °F 14.1 °F 9.3 °F 65% 30.18 in 10.0 mi West 3.5 mph - N/A   Overcast
3:34 PM 19.4 °F - 9.3 °F 65% 30.18 in 10.0 mi Calm Calm - N/A   Mostly Cloudy
3:54 PM 20.8 °F - 8.8 °F 60% 30.18 in 10.0 mi Calm Calm - N/A   Scattered Clouds
4:34 PM 20.3 °F - 9.5 °F 63% 30.20 in 10.0 mi Calm Calm - N/A   Overcast
4:54 PM 20.1 °F - 10.0 °F 65% 30.20 in 10.0 mi Calm Calm - N/A Snow Light Snow
5:14 PM 19.6 °F - 11.8 °F 72% 30.20 in 10.0 mi Calm Calm - N/A   Overcast
5:34 PM 19.2 °F - 11.5 °F 72% 30.20 in 10.0 mi Calm Calm - N/A Snow Light Snow
5:54 PM 19.0 °F - 12.2 °F 75% 30.20 in 10.0 mi Calm Calm - N/A Snow Light Snow
6:14 PM 18.9 °F 13.7 °F 12.4 °F 76% 30.20 in 10.0 mi SSE 3.5 mph - N/A Snow Light Snow
6:33 PM 18.5 °F 11.7 °F 12.9 °F 79% 30.20 in 10.0 mi SE 4.6 mph - N/A Snow Light Snow
6:54 PM 18.5 °F 11.7 °F 13.6 °F 81% 30.20 in 5.0 mi ESE 4.6 mph - N/A Snow Light Snow
7:14 PM 18.9 °F 12.1 °F 14.9 °F 85% 30.20 in 3.0 mi ESE 4.6 mph - N/A Snow Light Snow
7:35 PM 18.9 °F 10.8 °F 15.4 °F 87% 30.20 in 3.0 mi ESE 5.8 mph - N/A Snow Light Snow
7:54 PM 19.0 °F 11.1 °F 15.8 °F 87% 30.20 in 2.5 mi ESE 5.8 mph - N/A Snow Light Snow
8:14 PM 19.8 °F 11.9 °F 16.7 °F 88% 30.20 in 3.0 mi East 5.8 mph - N/A Snow Light Snow
8:34 PM 19.6 °F 10.6 °F 17.2 °F 91% 30.20 in 1.5 mi East 6.9 mph - N/A Snow Light Snow
8:54 PM 19.6 °F 9.7 °F 17.2 °F 91% 30.20 in 1.5 mi East 8.1 mph - N/A Snow Light Snow
9:14 PM 19.4 °F 9.5 °F 17.2 °F 91% 30.21 in 1.8 mi East 8.1 mph - N/A Snow Light Snow
9:54 PM 19.2 °F 8.4 °F 16.9 °F 91% 30.21 in 1.8 mi East 9.2 mph - N/A Snow Light Snow
10:14 PM 19.2 °F 9.3 °F 17.1 °F 91% 30.20 in 1.5 mi East 8.1 mph - N/A Snow Light Snow
10:34 PM 18.5 °F 7.5 °F 16.5 °F 92% 30.20 in 2.0 mi East 9.2 mph 16.1 mph N/A Snow Light Snow
11:14 PM 18.7 °F 7.8 °F 16.7 °F 92% 30.20 in 2.0 mi East 9.2 mph - N/A Snow Light Snow
11:34 PM 19.0 °F 10.0 °F 16.7 °F 91% 30.20 in 2.0 mi East 6.9 mph - N/A Snow Light Snow
11:54 PM 19.2 °F 9.3 °F 17.1 °F 91% 30.20 in 2.0 mi East 8.1 mph - N/A Snow Light Snow